Weather History for Camdenton, MO

Change the Weather History Date:

Monday, April 22, 2013

  Actual Average (KAIZ) Record (KAIZ)
Temperature  
Mean Temperature 57 °F -  
Max Temperature 68 °F 66 °F 84 °F (2006)
Min Temperature 46 °F 45 °F 35 °F (2003)
Degree Days  
Heating Degree Days 8    
Growing Degree Days 7 (Base 50)    
Moisture  
Dew Point 36 °F    
Average Humidity 43    
Maximum Humidity 66    
Minimum Humidity 26    
Precipitation  
Precipitation 0.00 in - - ()
Sea Level Pressure  
Sea Level Pressure 30.08 in    
Wind  
Wind Speed 10 mph (SE)    
Max Wind Speed 16 mph    
Max Gust Speed 23 mph    
Visibility 10 miles    
Events      
Averages and records for this station are not official NWS values.
T = Trace of Precipitation, MM = Missing Value Source: NWS Daily Summary

Daily Weather History Graph

Daily Weather History Graph

Search for Another Location

Airport:

Trip Planner

Search our weather history database for the weather conditions in past years. The results will help you decide how hot, cold, wet, or windy it might be!

Date:

Astronomy

Apr. 22, 2013 Rise Set
Actual Time 6:25 AM CDT 7:53 PM CDT
Civil Twilight 5:57 AM CDT 8:21 PM CDT
Nautical Twilight 5:24 AM CDT 8:54 PM CDT
Astronomical Twilight 4:49 AM CDT 9:29 PM CDT
Moon 4:45 PM CDT (4/22) 4:17 AM CDT (4/22)
Length of Visible Light 14h 23m
Length of Day
13h 27m
Waxing Gibbous, 88% of the Moon is Illuminated
Apr 22
Waxing Gibbous
Apr 25
Full
May 2
Last Quarter
May 9
New
May 17
First Quarter

Hourly Weather History & Observations

Time (CDT) Temp. Windchill Dew Point Humidity Pressure Visibility Wind Dir Wind Speed Gust Speed Precip Events Conditions
12:15 AM 53.6 °F - 35.6 °F 51% 30.23 in 10.0 mi SE 9.2 mph - N/A   Clear
12:35 AM 51.8 °F - 35.6 °F 54% 30.22 in 10.0 mi SE 8.1 mph - N/A   Clear
12:55 AM 51.8 °F - 35.6 °F 54% 30.22 in 10.0 mi SE 9.2 mph - N/A   Clear
1:15 AM 51.8 °F - 35.6 °F 54% 30.22 in 10.0 mi SE 9.2 mph - N/A   Clear
1:35 AM 51.8 °F - 37.4 °F 58% 30.21 in 10.0 mi SE 9.2 mph - N/A   Clear
1:55 AM 50.0 °F - 37.4 °F 62% 30.21 in 10.0 mi SE 8.1 mph - N/A   Scattered Clouds
2:35 AM 50.0 °F - 37.4 °F 62% 30.20 in 10.0 mi SE 9.2 mph - N/A   Mostly Cloudy
2:55 AM 50.0 °F - 37.4 °F 62% 30.19 in 10.0 mi SE 8.1 mph - N/A   Mostly Cloudy
3:15 AM 50.0 °F - 37.4 °F 62% 30.19 in 10.0 mi SE 10.4 mph - N/A   Mostly Cloudy
3:35 AM 50.0 °F - 37.4 °F 62% 30.18 in 10.0 mi SE 9.2 mph - N/A   Overcast
3:55 AM 50.0 °F - 37.4 °F 62% 30.18 in 10.0 mi ESE 10.4 mph - N/A   Overcast
4:15 AM 48.2 °F - 37.4 °F 66% 30.17 in 10.0 mi SE 10.4 mph - N/A   Scattered Clouds
4:35 AM 48.2 °F - 37.4 °F 66% 30.17 in 10.0 mi SE 10.4 mph - N/A   Clear
5:15 AM 48.2 °F - 37.4 °F 66% 30.17 in 10.0 mi SE 9.2 mph - N/A   Clear
5:35 AM 48.2 °F - 37.4 °F 66% 30.17 in 10.0 mi SE 9.2 mph - N/A   Clear
5:55 AM 46.4 °F 41.5 °F 35.6 °F 66% 30.17 in 10.0 mi SE 10.4 mph - N/A   Clear
6:15 AM 46.4 °F 42.4 °F 35.6 °F 66% 30.17 in 10.0 mi SE 8.1 mph - N/A   Clear
6:55 AM 46.4 °F 42.9 °F 35.6 °F 66% 30.18 in 10.0 mi SE 6.9 mph - N/A   Clear
7:15 AM 46.4 °F 42.9 °F 35.6 °F 66% 30.18 in 10.0 mi ESE 6.9 mph - N/A   Clear
7:35 AM 50.0 °F - 35.6 °F 58% 30.18 in 10.0 mi SE 6.9 mph - N/A   Clear
7:55 AM 50.0 °F - 35.6 °F 58% 30.17 in 10.0 mi ESE 8.1 mph - N/A   Clear
8:15 AM 51.8 °F - 33.8 °F 50% 30.17 in 10.0 mi SE 10.4 mph - N/A   Clear
8:55 AM 55.4 °F - 33.8 °F 44% 30.17 in 10.0 mi SSE 10.4 mph - N/A   Clear
9:15 AM 59.0 °F - 33.8 °F 39% 30.17 in 10.0 mi SSE 11.5 mph - N/A   Clear
9:35 AM 59.0 °F - 33.8 °F 39% 30.17 in 10.0 mi SSE 11.5 mph - N/A   Clear
9:55 AM 60.8 °F - 33.8 °F 36% 30.16 in 10.0 mi SSE 10.4 mph - N/A   Clear
10:15 AM 62.6 °F - 33.8 °F 34% 30.15 in 10.0 mi South 10.4 mph - N/A   Clear
10:35 AM 62.6 °F - 35.6 °F 37% 30.14 in 10.0 mi SE 9.2 mph - N/A   Clear
10:55 AM 64.4 °F - 37.4 °F 37% 30.14 in 10.0 mi SSE 5.8 mph - N/A   Clear
11:15 AM 64.4 °F - 35.6 °F 34% 30.13 in 10.0 mi South 8.1 mph - N/A   Clear
11:35 AM 66.2 °F - 35.6 °F 32% 30.12 in 10.0 mi SE 9.2 mph - N/A   Clear
11:55 AM 64.4 °F - 35.6 °F 34% 30.12 in 10.0 mi ESE 12.7 mph 16.1 mph N/A   Clear
12:15 PM 66.2 °F - 35.6 °F 32% 30.11 in 10.0 mi South 9.2 mph 16.1 mph N/A   Clear
12:55 PM 68.0 °F - 35.6 °F 30% 30.10 in 10.0 mi SE 10.4 mph 16.1 mph N/A   Clear
1:15 PM 68.0 °F - 35.6 °F 30% 30.08 in 10.0 mi ESE 12.7 mph - N/A   Clear
1:35 PM 68.0 °F - 33.8 °F 28% 30.07 in 10.0 mi SE 15.0 mph 18.4 mph N/A   Clear
1:55 PM 68.0 °F - 32.0 °F 26% 30.06 in 10.0 mi SE 12.7 mph 20.7 mph N/A   Clear
2:15 PM 68.0 °F - 32.0 °F 26% 30.05 in 10.0 mi SSE 12.7 mph 20.7 mph N/A   Clear
2:35 PM 68.0 °F - 32.0 °F 26% 30.03 in 10.0 mi SE 13.8 mph 20.7 mph N/A   Clear
2:55 PM 68.0 °F - 33.8 °F 28% 30.02 in 10.0 mi SE 16.1 mph - N/A   Clear
3:15 PM 68.0 °F - 32.0 °F 26% 30.01 in 10.0 mi SE 11.5 mph 23.0 mph N/A   Clear
3:35 PM 68.0 °F - 32.0 °F 26% 30.00 in 10.0 mi SE 16.1 mph 21.9 mph N/A   Clear
3:55 PM 68.0 °F - 32.0 °F 26% 29.98 in 10.0 mi SE 16.1 mph - N/A   Clear
4:15 PM 68.0 °F - 32.0 °F 26% 29.97 in 10.0 mi SE 16.1 mph 21.9 mph N/A   Clear
4:35 PM 66.2 °F - 32.0 °F 28% 29.96 in 10.0 mi SE 13.8 mph 19.6 mph N/A   Scattered Clouds
4:55 PM 66.2 °F - 32.0 °F 28% 29.97 in 10.0 mi SSE 16.1 mph - N/A   Mostly Cloudy
5:15 PM 66.2 °F - 33.8 °F 30% 29.97 in 10.0 mi SSE 10.4 mph 16.1 mph N/A   Scattered Clouds
5:35 PM 64.4 °F - 33.8 °F 32% 29.98 in 10.0 mi SSE 9.2 mph 16.1 mph N/A   Mostly Cloudy
5:55 PM 64.4 °F - 33.8 °F 32% 29.97 in 10.0 mi SSE 9.2 mph - N/A   Overcast
6:15 PM 64.4 °F - 33.8 °F 32% 29.97 in 10.0 mi SE 9.2 mph - N/A   Overcast
6:35 PM 64.4 °F - 35.6 °F 34% 29.95 in 10.0 mi SE 10.4 mph - N/A   Mostly Cloudy
6:55 PM 64.4 °F - 33.8 °F 32% 29.93 in 10.0 mi SE 13.8 mph - N/A   Mostly Cloudy
7:15 PM 64.4 °F - 35.6 °F 34% 29.93 in 10.0 mi SE 11.5 mph 18.4 mph N/A   Overcast
7:35 PM 62.6 °F - 35.6 °F 37% 29.95 in 10.0 mi SE 8.1 mph - N/A   Overcast
7:55 PM 64.4 °F - 35.6 °F 34% 29.96 in 10.0 mi SSE 12.7 mph 18.4 mph N/A   Overcast
8:15 PM 62.6 °F - 35.6 °F 37% 29.97 in 10.0 mi SE 13.8 mph 21.9 mph N/A   Overcast
8:35 PM 62.6 °F - 35.6 °F 37% 29.98 in 10.0 mi SE 11.5 mph 18.4 mph N/A   Overcast
8:55 PM 62.6 °F - 37.4 °F 39% 29.99 in 10.0 mi SE 11.5 mph 16.1 mph N/A   Overcast
9:15 PM 62.6 °F - 37.4 °F 39% 29.99 in 10.0 mi SE 10.4 mph - N/A   Overcast
9:35 PM 60.8 °F - 37.4 °F 42% 29.99 in 10.0 mi SE 12.7 mph - N/A   Mostly Cloudy
9:55 PM 60.8 °F - 37.4 °F 42% 29.99 in 10.0 mi SE 12.7 mph - N/A   Clear
10:15 PM 60.8 °F - 37.4 °F 42% 29.98 in 10.0 mi SE 11.5 mph - N/A   Clear
10:35 PM 59.0 °F - 39.2 °F 48% 29.97 in 10.0 mi SE 11.5 mph 16.1 mph N/A   Clear
10:55 PM 59.0 °F - 39.2 °F 48% 29.98 in 10.0 mi SE 10.4 mph - N/A   Clear
11:15 PM 59.0 °F - 39.2 °F 48% 29.98 in 10.0 mi SE 8.1 mph - N/A   Clear
11:35 PM 59.0 °F - 41.0 °F 51% 29.96 in 10.0 mi SE 10.4 mph - N/A   Clear
11:55 PM 59.0 °F - 41.0 °F 51% 29.96 in 10.0 mi SE 10.4 mph 17.3 mph N/A   Clear